RH
18 25 28 31 33 32 29 31 37 36 34 41 39 41 42 38 34 31 34 39 32 31 28 26 31 35 33 34 41 32 23 25 32 43 59 67 73 80 81 84 81 85 80 69
17 23 24 29 31 25 25 31 31 33 32 32 32 36 38 33 28 27 28 26 27 29 28 29 31 33 35 38 41 30 23 30 31 46 57 69 74 78 83 88 91 83 79 73
13 14 23 26 24 24 28 28 30 36 33 35 36 36 34 33 36 35 35 27 22 26 30 27 27 34 38 40 40 27 25 30 32 44 57 72 78 82 87 91 90 92 81 82
12 13 21 24 22 25 28 30 36 36 35 38 35 34 35 27 32 32 32 27 23 26 27 26 30 43 44 42 40 25 24 31 36 42 55 71 74 81 88 90 88 90 89 85
10 14 17 26 23 25 27 35 34 35 34 35 30 30 26 32 32 32 32 30 24 27 30 31 40 48 47 44 36 22 25 32 36 46 55 73 79 82 87 91 88 90 90 89
10 14 19 20 31 29 30 33 34 34 34 34 32 33 27 31 32 30 29 27 27 30 32 37 47 51 46 40 28 23 26 35 39 49 60 69 82 90 89 89 88 89 88 90
14 11 17 22 31 31 30 36 37 41 34 31 28 32 34 31 26 25 23 29 31 31 36 43 49 44 38 34 22 23 27 35 38 46 60 65 76 89 84 88 88 88 85 91
16 17 13 19 22 29 33 31 29 40 35 34 35 39 32 29 25 26 24 26 29 35 39 45 48 38 35 24 21 23 30 37 40 43 57 61 73 84 80 82 84 89 86 84
17 15 18 19 24 30 33 29 23 28 33 36 34 36 36 33 28 27 31 36 31 37 40 44 46 36 26 24 21 23 27 45 46 40 53 58 67 80 77 76 79 86 84 77
18 23 21 19 30 32 32 26 27 25 33 41 33 33 33 32 31 37 43 42 34 36 40 41 40 23 23 23 21 22 32 43 41 36 44 47 60 70 70 67 78 88 83 79
17 27 24 27 28 28 26 28 26 27 27 38 40 33 30 33 35 44 40 40 36 36 36 36 24 23 22 21 23 22 30 35 39 38 41 47 60 60 72 76 77 88 80 79
16 24 32 28 26 27 26 21 28 29 34 32 34 36 35 36 35 39 38 47 36 33 37 32 23 23 21 20 25 23 33 32 30 37 44 47 55 60 68 75 83 87 76 72
18 28 33 33 30 30 32 26 26 29 32 36 31 29 34 36 34 36 43 42 40 34 38 29 22 23 20 20 24 24 34 36 31 38 37 43 54 59 61 68 77 89 88 75
22 21 27 28 31 30 30 26 22 22 28 30 30 32 36 40 37 36 42 41 38 34 38 31 24 22 19 20 22 24 31 32 26 27 31 40 53 57 57 63 73 80 87 85
30 23 25 26 30 34 32 29 25 23 23 27 29 29 36 40 41 38 45 51 43 36 36 33 27 21 18 20 20 23 26 29 24 25 25 35 51 54 60 66 66 71 77 87
33 28 27 28 26 35 35 30 27 24 23 28 29 30 29 37 40 41 46 50 54 43 37 34 29 23 17 18 19 21 24 26 19 23 22 22 40 57 64 60 63 59 57 79
39 29 29 37 29 32 36 32 27 23 23 26 27 26 30 38 36 34 47 46 53 44 36 34 29 26 20 16 18 19 22 23 17 20 20 22 22 42 55 56 62 59 47 54
47 34 28 38 38 40 30 30 26 26 25 24 23 25 27 32 37 30 41 44 45 43 39 34 29 30 25 19 16 19 20 21 17 20 22 20 21 25 41 49 48 36 42 42
41 38 34 41 45 31 26 28 32 32 27 26 22 23 26 29 32 31 39 38 41 43 44 37 33 33 28 23 19 16 19 20 17 18 23 19 21 22 24 35 39 34 30 34
46 38 40 40 47 44 30 24 29 31 30 32 26 26 22 28 32 32 32 37 40 44 43 39 35 35 31 22 20 17 17 18 17 18 22 19 18 23 24 25 30 30 29 27
54 45 48 54 54 39 27 32 32 33 28 26 24 24 25 29 27 27 38 41 42 44 46 40 37 39 29 20 20 18 16 17 16 18 21 21 17 18 21 23 22 23 26 28
57 58 48 43 54 47 36 33 35 33 30 29 26 24 22 23 23 27 42 46 43 43 42 42 44 42 37 27 26 22 18 16 17 18 19 21 18 16 19 20 20 20 21 28
82 68 61 49 42 42 37 37 41 37 36 33 27 25 22 22 23 27 36 40 44 46 45 45 48 46 45 35 31 31 28 19 17 18 17 19 18 17 18 19 19 18 17 22
75 77 76 69 55 45 38 44 46 44 45 42 34 29 25 23 26 28 31 37 38 42 41 45 48 47 47 40 34 36 34 29 19 17 17 16 16 16 18 18 16 16 15 17
79 84 73 55 58 56 50 49 49 49 50 45 44 39 32 31 35 37 39 36 33 33 36 40 44 48 48 45 37 38 37 34 25 20 18 17 14 15 15 15 16 15 16 12
78 75 82 73 71 65 61 59 60 52 49 51 42 43 36 34 38 37 44 37 35 36 39 41 43 46 47 48 48 43 41 39 32 24 20 17 17 15 14 14 16 17 18 16